Location: Alvarez
(32.1972°N, 116.8667°W)
Time: 07:35:38
(UTC+00:00)

Daily predictions for brighter satellites

Satellite Brightness Start Highest point End
(mag) Time Altitude Azimuth Time Altitude Azimuth Time Altitude Azimuth
SWIFT 4.3 12:03:51 10° SW 12:05:38 12° S 12:07:25 10° SSE
OE (NEXTSAT) 4.4 12:02:55 11° WSW 12:05:59 63° NW 12:09:14 10° NE
Meteor 1-18 Rocket 4.4 12:00:18 10° N 12:06:09 89° E 12:12:02 10° S
Cosmos 1513 Rocket 4.5 12:03:15 10° NNW 12:09:14 64° W 12:15:13 10° S
Envisat 3.3 12:06:20 10° NNE 12:11:24 70° E 12:16:26 10° S
ALOS 3.7 12:09:05 10° NNW 12:12:34 21° WNW 12:16:03 10° WSW
Cosmos 1633 Rocket 3.5 12:08:38 10° S 12:12:55 64° E 12:17:13 10° NNE
H-2A R/B 3.7 12:10:26 10° NNE 12:14:00 47° E 12:17:37 10° S
Cosmos 1378 3.1 12:13:48 10° NNW 12:17:26 62° W 12:21:04 10° S
Meteor 1-5 Rocket 4.3 12:13:34 10° SSW 12:18:51 56° W 12:24:03 10° N
Cosmos 389 Rocket 3.3 12:16:42 10° S 12:20:06 54° E 12:23:32 10° NNE
ATLAS 3B R/B 4.3 12:14:39 10° S 12:20:08 31° ESE 12:25:48 10° NE
ATLAS CENTAUR R/B 2.9 12:16:59 10° S 12:21:12 40° ESE 12:25:40 10° NE
